This is the latest recevied weather packets stored in our database for station/object KJ4EBE. If no packets are shown the sender has not sent any weather packets the latest 10 day(s).
| Time | Temp. | Humidity | Pressure | Rain* | Wind** | Luminosity | Snow |
|---|---|---|---|---|---|---|---|
| 1777740983 | 21.67° C | 56% | 1022.2 hPa | 0 mm | - | 744 W/m² | - |
| 1777740680 | 21.11° C | 57% | 1022.5 hPa | 0 mm | - | 731 W/m² | - |
| 1777740375 | 21.67° C | 63% | 1022.5 hPa | 0 mm | - | 715 W/m² | - |
| 1777740073 | 20.56° C | 58% | 1022.5 hPa | 0 mm | - | 709 W/m² | - |
| 1777739769 | 20.56° C | 58% | 1022.2 hPa | 0 mm | - | 691 W/m² | - |
| 1777739465 | 21.11° C | 55% | 1022.4 hPa | 0 mm | - | 685 W/m² | - |
| 1777739162 | 21.11° C | 58% | 1022.5 hPa | 0 mm | - | 691 W/m² | - |
| 1777738859 | 20.56° C | 58% | 1022.5 hPa | 0 mm | - | 682 W/m² | - |
| 1777738556 | 20.56° C | 58% | 1022.6 hPa | 0 mm | - | 662 W/m² | - |
| 1777738253 | 20.56° C | 62% | 1022.5 hPa | 0 mm | - | 634 W/m² | - |
| 1777737951 | 20.56° C | 59% | 1022.6 hPa | 0 mm | - | 618 W/m² | - |
| 1777737650 | 20° C | 61% | 1022.4 hPa | 0 mm | - | 603 W/m² | - |
| 1777737348 | 20° C | 62% | 1022.6 hPa | 0 mm | - | 583 W/m² | - |
| 1777737044 | 20° C | 61% | 1022.6 hPa | 0 mm | - | 568 W/m² | - |
| 1777736741 | 19.44° C | 63% | 1022.4 hPa | 0 mm | - | 561 W/m² | - |
| 1777736118 | 20° C | 61% | 1022.3 hPa | 0 mm | - | 533 W/m² | - |
| 1777735810 | 20.56° C | 61% | 1022.3 hPa | 0 mm | - | 517 W/m² | - |
| 1777735507 | 21.11° C | 61% | 1022.2 hPa | 0 mm | - | 515 W/m² | - |
| 1777735204 | 20.56° C | 63% | 1022.3 hPa | 0 mm | - | 502 W/m² | - |
| 1777734901 | 20° C | 65% | 1022.4 hPa | 0 mm | - | 493 W/m² | - |
| 1777734598 | 19.44° C | 61% | 1022.4 hPa | 0 mm | - | 470 W/m² | - |
| 1777734295 | 20° C | 69% | 1022 hPa | 0 mm | - | 457 W/m² | - |
| 1777733991 | 20° C | 63% | 1022.1 hPa | 0 mm | - | 445 W/m² | - |
| 1777733688 | 18.89° C | 74% | 1022.2 hPa | 0 mm | - | 426 W/m² | - |
| 1777733384 | 20° C | 65% | 1022.2 hPa | 0 mm | - | 402 W/m² | - |
* Rain latest hour (hover to see other rain measurements)
** Current wind speed in m/s (hover to see current wind gust speed)